Regional Weather Roundup
Issued by NWS Wakefield, VA

Home | Current Version | Previous Version | Text Only | Print | Product List | Glossary On
Versions: 1 2 3 4 5 6 7 8 9 10 11 12 13 14 15 16 17 18 19 20 21 22 23 24 25 26 27 28 29 30 31 32 33 34 35 36 37 38 39 40 41 42 43 44 45 46 47 48 49 50
376
ASUS41 KAKQ 110615
RWRAKQ

REGIONAL WEATHER ROUNDUP
NATIONAL WEATHER SERVICE WAKEFIELD VA
100 AM EST THU FEB 11 2016

Note: "fair" indicates few or no clouds below 12,000 feet with no
significant weather and/or obstructions to visibility. * = Denotes
station may not report precipitation (e.g., rain,snow,etc.),
thunder or fog.

VAZ042-051-052>054-056-110700-
NORTHERN VIRGINIA

CITY           SKY/WX    TMP DP  RH WIND       PRES   REMARKS
WASH NATIONAL  FAIR      26   7  44 W10G23    29.98R WCI  16
DULLES         FAIR      23   6  48 W12       29.97R WCI  12
FORT BELVOIR   FAIR      25   5  43 W8        29.98R
QUANTICO       FAIR      26   7  44 NW6       30.01R
FREDERICKSBRG* FAIR      25   8  48 W10       30.00R WCI  15
STAFFORD*      FAIR      23   5  46 W3        30.03R
WARRENTON      FAIR      24  10  56 W7        29.98R
CULPEPER*      FAIR      23   4  44 W5        30.01R
MANASSAS*      FAIR      25   9  50 W9G16     29.99R
LEESBURG*      FAIR      25  14  63 NW20G25   29.97R WCI  11
WINCHESTER     FAIR      23   9  54 W20G25    29.95R WCI   8
FRONT ROYAL*   MOCLDY    21   5  49 W7G23     29.96R
LURAY*         MOCLDY    21   5  49 W8        29.96S
$$

VAZ048-049-060>072-079>083-110700-
CENTRAL AND SOUTH CENTRAL VIRGINIA

CITY           SKY/WX    TMP DP  RH WIND       PRES   REMARKS
RICHMOND       FAIR      25   5  42 W14       30.01R WCI  13
CHESTERFIELD*  FAIR      25  -2  30 W8G16     30.03R
PETERSBURG*    FAIR      26   0  31 W8        30.03S
HANOVER        FAIR      24   4  42 W9        30.03R
TAPPAHANNOCK*  FAIR      28   7  42 W8        30.00R
QUINTON*       FAIR      26   4  39 W12G21    30.01R WCI  16
CHARLOTTSVILLE FAIR      22   2  42 NW5       29.99R
GORDONSVILLE*  FAIR      23   3  42 SW3       29.99R
ORANGE*        FAIR      25   7  46 SW7       30.01R
LOUISA*        FAIR      21   5  49 W7        29.98R
BUMPASS*       FAIR      23   4  45 SW5       30.00R
FARMVILLE*     FAIR      24   4  42 W6        30.02R
CREWE*         FAIR      22   9  56 CALM      30.02S
FORT PICKETT*  FAIR      22   8  54 W8        30.02S
CHASE CITY*    FAIR      23   4  44 W3        30.04S
CLARKSVILLE*   FAIR      23   9  54 CALM      30.05R
SOUTH HILL*    FAIR      24   5  44 W5        30.10R
LAWRENCEVILLE* FAIR      24   6  47 W6        30.04R
EMPORIA*       FAIR      25   9  50 W7        30.07R
$$

VAZ088>098-110700-
SOUTHEAST VIRGINIA

CITY           SKY/WX    TMP DP  RH WIND       PRES   REMARKS
NORFOLK        FAIR      29   9  43 VRB7      29.98R
VIRGINIA BEACH FAIR      33   8  35 W14G23    29.98R WCI  23
NORFOLK NAVAL  FAIR      30   9  41 W20G28    30.00R WCI  17
WEST POINT*    FAIR      28   6  39 W12G21    30.02R WCI  18
SALUDA*        MOCLDY    28   9  44 W12G18    29.98S WCI  18
NEWPORT NEWS   MOCLDY    29   8  41 W13       29.99R WCI  19
LANGLEY AFB    CLOUDY    29   7  38 W15       29.98R WCI  18
FORT EUSTIS    FAIR      29   9  43 NW17G25   29.98R WCI  16
WILLIAMSBURG*  FAIR      30   9  40 NW16G24   30.01R WCI  19
HR EXEC AP*    FAIR      28   7  40 W9G20     30.02R
FRANKLIN*      FAIR      26   7  44 W13G18    30.04R WCI  15
US460-WAKEFLD  FAIR      27   5  39 W7G18     30.03R
$$

VAZ020-022-025-037-045-110700-
WEST CENTRAL AND SOUTHWEST VIRGINIA

CITY           SKY/WX    TMP DP  RH WIND       PRES   REMARKS
STAUNTON*      FAIR      22   8  55 W8        29.97S
WAYNESBORO*    MOCLDY    17   1  48 SW7       29.95R
HOT SPRINGS VA LGT SNOW   6   2  84 W22G39    29.73S WCI -16
LYNCHBURG      FAIR      20   3  48 W7        30.03R
DANVILLE       FAIR      23   4  44 W9        30.07R
SOUTH BOSTON*  FAIR      23   6  47 W5        30.06R
MARTINSVILLE   FAIR      15   1  55 CALM      30.08S
ROANOKE        FAIR      18   1  47 NW20G29   30.04S WCI   2
BLACKSBURG     MOCLDY    14   4  63 W15G23    30.00R WCI  -1
DUBLIN*        CLOUDY    16   6  64 NW16G22   30.01S WCI   1
MARION*        CLOUDY    14   5  68 W24       30.00R WCI  -5
HILLSVILLE*    FAIR      12   4  70 NW14G26   29.92R WCI  -4
RICHLANDS*     FLURRIES  12   5  73 W7        30.00S
WISE*          CLOUDY    18   5  57 W9        30.02S
ABINGDON*      CLOUDY    19   4  53 W7        30.06S
$$

MDZ021>025-VAZ099-100-110700-
SOUTHERN MARYLAND AND THE DELMARVA PENINSULA

CITY           SKY/WX    TMP DP  RH WIND       PRES   REMARKS
PATUXENT RIVER PTCLDY    26   8  46 W15G21    29.97R WCI  14
BAY BRIDGE APT   N/A     28  10  47 W20G25    29.95R WCI  15
LEONARDTOWN    PTCLDY    27   9  46 W10       29.98R WCI  17
DOVER          MOCLDY    26  13  56 W15G26    29.89R WCI  14
GEORGETOWN     CLOUDY    26  18  71 W12G18    29.92R WCI  16
EASTON         CLEAR     27  12  53 NW14G25   29.98R WCI  16
CAMBRIDGE      CLEAR     27  10  50 NW17G26   29.94S WCI  14
SALISBURY      CLOUDY    26  16  65 NW14G22   29.93R WCI  14
OCEAN CITY     FLURRIES  26  19  74 NW14      29.92R WCI  14
WALLOPS ISLAND LGT SNOW  25  20  81 W9        29.95R
ACCOMACK*      CLOUDY    30  14  51 NW17G23   29.95R WCI  18
$$

NCZ012>017-030>032-110700-
NORTH CENTRAL AND EASTERN NORTH CAROLINA

CITY           SKY/WX    TMP DP  RH WIND       PRES   REMARKS
ROANOKE RAPIDS FAIR      27   7  43 NW9       30.06R
RALEIGH        PTCLDY    26   6  42 NW10      30.07R WCI  16
ELIZABETH CITY CLEAR     28   9  44 W18G26    30.02R WCI  15
AHOSKIE*       CLEAR     26   7  43 NW5       30.06R
EDENTON*       CLEAR     31  10  42 NW14G20   30.04R WCI  20
CURRITUCK*     CLEAR     29  10  44 W14G20    30.01R WCI  19
KILL DEVIL HLS CLEAR     31  11  43 W16G29    29.99R WCI  20
MANTEO         CLEAR     31  12  46 NW16G32   30.02R WCI  19
CAPE HATTERAS  CLEAR     35  16  45 NW17G30   30.02R WCI  25
TARBORO*       FAIR      28  11  50 NW10      30.08R WCI  18
GOLDSBORO      CLEAR     28   9  43 W7        30.07R
WASHINGTON     CLEAR     28  11  48 W5        30.07R
GREENVILLE     CLEAR     30  12  47 NW7       30.08R
NEW BERN       CLEAR     29  13  51 W9        30.09R
WILMINGTON     CLEAR     30  17  58 W7        30.11R
$$

VAZ048-110700-
ELSEWHERE

CITY           SKY/WX    TMP DP  RH WIND       PRES   REMARKS
HARRISBURG PA  PTCLDY    23  11  60 W14       29.88R WCI  11
BALTIMORE      MOCLDY    23   8  52 W14       29.94R WCI  11
ANNAPOLIS      CLEAR     26  11  52 W10       29.95R WCI  16
ANDREWS AFB    FAIR      24   8  49 W13       29.95R WCI  12
PHILADELPHIA   CLOUDY    26  10  50 W15       29.87R WCI  14
HENDERSON NC   PTCLDY    23   6  47 W5        30.05R
GREENSBORO     CLEAR     22   3  44 NW10      30.04S WCI  11
ROCKY MOUNT    CLEAR     27   9  46 W8        30.07R
$$

VAZ100-110700-
MARINE

STATION/POSITION TIME  TEMP    WIND        PRES    WAVE   SWELL
                       AIR SEA DIR/SP/G            HT/PER HT/PER
                 (UTC) (F)     (DEG/KT/KT) (MB)    (FT/S) (FT/S)
BRANDYWINE LGT   0500   27     320/ 24/ 28 1011.4R
CAPE MAY NJ      0500   29 41  300/ 19/ 29 1011.0R
LEWES DE         0500   29 40  300/ 27/ 30 1011.9R
15NM E FENWICK I 0550   30 43              1011.6R   5/ 5
OCEAN-CITY-INLET 0500   28 42  330/ 15/ 18 1011.5R
WACHAPREAGUE VA  0500   29 42  290/  4/ 11 1013.7R
THOMAS POINT MD  0600   26 38  300/ 18/ 20 1014.7R
GOOSES REEF MD   0600   27 39  310/ 17/ 21 1015.3R   2/ 3
COVE POINT MD    0500   26     330/ 14/ 27 1014.9R
SOLOMONS ISLAND  0500      41                N/A
BISHOPS HEAD MD  0500   29 37  300/ 20/ 23 1013.1R
PINEY POINT MD   0500          330/ 26/ 28   N/A
POTOMAC MD       0600   29 40  320/ 23/ 29 1013.9R   3/ 4
CAMBRIDGE MD     0500   28 39  280/ 17/ 25 1013.0R
LEWISETTA VA     0500   29 40  310/ 14/ 17 1014.5R
RAPPAHANNOCK LGT 0500          300/ 26/ 29 1014.3R
STINGRAY PT      0600   30 41  300/ 19/ 25 1014.8R   2/ 3
YORK RVR RNG VA  0500   30     320/ 17/ 20 1014.3R
YORKTOWN VA      0512   30 42  290/ 17/ 20 1014.7R
JAMESTOWN VA     0600   29 43  300/ 19/ 23   N/A     1/ 3
DOMINION TERM VA 0500   31     290/ 22/ 25 1014.6R
KIPTOPEKE VA     0500      42  330/ 23/ 29   N/A
CHES BAY BRIDGE  0512   31 42  260/ 23/ 26 1014.1R
CAPE HENRY VA    0500   30     280/ 14/ 21   N/A
CHESAPEAKE LGHT  0500   32     290/ 27/ 30 1014.6R
WILLOUBY STN VA  0500   30     280/ 21/ 23 1015.4R
CAPE HENRY BUOY  0558      44                N/A     5/ 5   2/13
1ST LANDING BUOY 0600      42                N/A     3/ 3
CAPE CHARLES BUO 0556      43                N/A     4/ 4   2/14
OFFSHORE WE BUOY 0551      46                N/A     6/ 5   2/13
64NM E OF VA BCH 0550   36 49  290/ 25/ 31 1012.7R   9/ 6   2/11
DUCK PIER NC     0500   31     290/ 24/ 29 1014.7R
44100 DUCK FRF   0554      46                N/A     5/ 5   2/13
44056 DUCK FRF   0511      44                N/A     3/14   2/14
OREGON INLET NC  0500   33 43  290/ 21/ 31 1015.1R
HATTERAS NC      0512   37 48  290/ 23/ 27 1015.5R
DIAMOND SHLS NC  0550   41 71  290/ 27/ 33 101C1F1C2F2C3F3C4F4C5F5C6F6C7F7C8M1C9!



USA.gov is the U.S. government's official web portal to all federal, state and local government web resources and services.